Flag for Colombia Weather past 2 weeks in Buenaventura, Colombia

Now
75 °F

Scattered clouds.


Feels Like: 76 °F
Forecast: 80 / 91 °F
Wind: 5 mph from Southeast

Location: Cali / Alfonso Bonillaaragon

Current Time: Aug 5, 2015 at 8:28:25 AM

Latest Report: Aug 5, 2015 at 8:00 AM


Visibility: N/A

Pressure: 29.98 "Hg

Humidity: 78%

Dew point: 68 °F

Location of BuenaventuraLocation

Historic Weather in Buenaventura — Graph

°F

Buenaventura temperature yesterday

Maximum temperature yesterday: 95 °F (at 4:00 PM)
Minimum temperature yesterday: 64 °F (at 5:00 AM)
Average temperature yesterday: 79 °F

Past Weeks' High & Low Weather Summary

 TemperatureHumidityPressure
High95 °F (Aug 3, 3:00 PM)100% (Jul 21, 7:00 AM)30.20 "Hg (Jul 21, 7:00 AM)
Low61 °F (Jul 24, 4:00 AM)26% (Jul 25, 5:00 PM)29.76 "Hg (Aug 3, 4:00 PM)
Average76 °F71%29.94 "Hg
* Reported Jul 21 7:00 AM — Aug 5 7:00 AM, Buenaventura, Weather by CustomWeather, © 2015

Note: Actual official high and low records may vary slightly from our data, if they occured in-between our weather recording intervals... More about our weather records

Advertising

Buenaventura weather history for previous 24 hours

 ConditionsComfort  
Time TempWeatherWind HumidityBarometerVisibility
7:00 AM
Wed, Aug 5
68 °FPartly sunny.5 mph94%29.96 "HgN/A
6:00 AM66 °FPassing clouds.3 mph94%29.94 "HgN/A
5:00 AM68 °FPassing clouds.3 mph94%29.93 "HgN/A
3:00 AM70 °FPassing clouds.7 mph88%29.92 "HgN/A
2:00 AM70 °FPassing clouds.7 mph88%29.92 "HgN/A
1:00 AM70 °FPassing clouds.7 mph94%29.93 "HgN/A
12:00 AM73 °FPassing clouds.7 mph83%29.94 "HgN/A
11:00 PM
Tue, Aug 4
75 °FPassing clouds.7 mph78%29.95 "HgN/A
10:00 PM75 °FPassing clouds.5 mph74%29.92 "HgN/A
9:00 PM81 °FPassing clouds.14 mph66%29.89 "HgN/A
8:00 PM81 °FThunderstorms. Passing clouds.14 mph66%29.86 "HgN/A
7:00 PM82 °FThunderstorms. Passing clouds.14 mph62%29.83 "HgN/A
6:00 PM93 °FPartly sunny.12 mph39%29.77 "HgN/A
4:00 PM95 °FScattered clouds.6 mph26%29.77 "HgN/A
3:00 PM93 °FPassing clouds.6 mph34%29.82 "HgN/A
2:00 PM93 °FPassing clouds.6 mph34%29.82 "HgN/A
1:00 PM91 °FPassing clouds.5 mph41%29.87 "HgN/A
12:00 PM90 °FScattered clouds.3 mph46%29.92 "HgN/A
11:00 AM88 °FScattered clouds.5 mph46%29.95 "HgN/A
10:00 AM84 °FScattered clouds.5 mph55%29.97 "HgN/A
9:00 AM81 °FScattered clouds.3 mph66%29.96 "HgN/A
8:00 AM75 °FPartly sunny.3 mph78%29.96 "HgN/A
Weather by CustomWeather, © 2015

See weather overviewHow to use our weather pages